Time,TemperatureF,DewpointF,PressureIn,WindDirection,WindDirectionDegrees,WindSpeedMPH,WindSpeedGustMPH,Humidity,HourlyPrecipIn,Conditions,Clouds,dailyrainin,SoftwareType,DateUTC
2013-02-08 00:02:00,23.0,2.0,-100.00,North,0,1.0,2.0,40,-99.99,,,-99.99,,2013-02-08 05:02:00,
2013-02-08 00:12:00,23.0,2.0,-100.00,North,0,1.0,2.0,40,-99.99,,,-99.99,,2013-02-08 05:12:00,
2013-02-08 00:32:00,23.0,5.0,-100.00,WNW,290,2.0,3.0,46,-99.99,,,-99.99,,2013-02-08 05:32:00,
2013-02-08 01:11:00,23.0,7.0,-100.00,West,280,1.0,2.0,50,-99.99,,,-99.99,,2013-02-08 06:11:00,
2013-02-08 01:22:00,23.0,6.0,-100.00,WSW,250,1.0,2.0,48,-99.99,,,-99.99,,2013-02-08 06:22:00,
2013-02-08 01:32:00,23.0,6.0,-100.00,West,260,1.0,2.0,48,-99.99,,,-99.99,,2013-02-08 06:32:00,
2013-02-08 01:42:00,23.0,7.0,-100.00,West,270,0.0,2.0,49,-99.99,,,-99.99,,2013-02-08 06:42:00,
2013-02-08 01:52:00,23.0,7.0,-100.00,North,355,2.0,2.0,50,-99.99,,,-99.99,,2013-02-08 06:52:00,
2013-02-08 02:01:00,23.0,6.0,-100.00,North,5,3.0,6.0,48,-99.99,,,-99.99,,2013-02-08 07:01:00,
2013-02-08 02:12:00,23.0,7.0,-100.00,North,350,3.0,5.0,50,-99.99,,,-99.99,,2013-02-08 07:12:00,
2013-02-08 02:22:00,23.0,7.0,-100.00,North,5,5.0,8.0,50,-99.99,,,-99.99,,2013-02-08 07:22:00,
2013-02-08 02:32:00,23.0,7.0,-100.00,North,5,5.0,8.0,50,-99.99,,,-99.99,,2013-02-08 07:32:00,
2013-02-08 02:42:00,22.0,9.0,-100.00,North,355,5.0,7.0,55,-99.99,,,-99.99,,2013-02-08 07:42:00,
2013-02-08 02:52:00,22.0,9.0,-100.00,North,0,3.0,7.0,57,-99.99,,,-99.99,,2013-02-08 07:52:00,
2013-02-08 03:52:00,22.0,15.0,-100.00,North,5,3.0,7.0,74,-99.99,,,-99.99,,2013-02-08 08:52:00,
2013-02-08 04:03:00,22.0,15.0,-100.00,North,355,3.0,7.0,76,-99.99,,,-99.99,,2013-02-08 09:03:00,
2013-02-08 04:11:00,21.0,16.0,-100.00,NNW,340,6.0,8.0,80,-99.99,,,-99.99,,2013-02-08 09:11:00,
2013-02-08 04:21:00,21.0,17.0,-100.00,North,5,6.0,8.0,84,-99.99,,,-99.99,,2013-02-08 09:21:00,
2013-02-08 04:30:00,21.0,18.0,-100.00,NNE,20,2.0,5.0,88,-99.99,,,-99.99,,2013-02-08 09:30:00,
2013-02-08 04:32:00,21.0,17.0,-100.00,NNW,345,3.0,7.0,85,-99.99,,,-99.99,,2013-02-08 09:32:00,
2013-02-08 04:42:00,21.0,18.0,-100.00,NNW,335,5.0,7.0,86,-99.99,,,-99.99,,2013-02-08 09:42:00,
2013-02-08 04:52:00,21.0,18.0,-100.00,NNE,25,3.0,7.0,87,-99.99,,,-99.99,,2013-02-08 09:52:00,
2013-02-08 05:01:00,21.0,18.0,-100.00,NNE,25,3.0,7.0,87,-99.99,,,-99.99,,2013-02-08 10:01:00,
2013-02-08 05:12:00,21.0,18.0,-100.00,NNE,20,2.0,5.0,88,-99.99,,,-99.99,,2013-02-08 10:12:00,
2013-02-08 05:22:00,21.0,18.0,-100.00,NNE,20,2.0,5.0,88,-99.99,,,-99.99,,2013-02-08 10:22:00,
2013-02-08 06:02:00,21.0,18.0,-100.00,North,0,5.0,8.0,89,-99.99,,,-99.99,,2013-02-08 11:02:00,
2013-02-08 06:11:00,21.0,18.0,-100.00,North,0,3.0,10.0,89,-99.99,,,-99.99,,2013-02-08 11:11:00,
2013-02-08 06:22:00,20.0,18.0,-100.00,North,350,6.0,10.0,89,-99.99,,,-99.99,,2013-02-08 11:22:00,
2013-02-08 06:32:00,20.0,18.0,-100.00,North,5,5.0,10.0,89,-99.99,,,-99.99,,2013-02-08 11:32:00,
2013-02-08 06:42:00,20.0,18.0,-100.00,NNW,345,7.0,10.0,89,-99.99,,,-99.99,,2013-02-08 11:42:00,
2013-02-08 08:12:00,19.0,16.0,-100.00,North,355,5.0,12.0,88,-99.99,,,-99.99,,2013-02-08 13:12:00,
2013-02-08 08:22:00,19.0,15.0,-100.00,North,355,5.0,10.0,87,-99.99,,,-99.99,,2013-02-08 13:22:00,
2013-02-08 08:32:00,19.0,15.0,-100.00,North,350,5.0,10.0,87,-99.99,,,-99.99,,2013-02-08 13:32:00,
2013-02-08 08:42:00,19.0,15.0,-100.00,North,10,2.0,8.0,87,-99.99,,,-99.99,,2013-02-08 13:42:00,
2013-02-08 08:52:00,18.0,15.0,-100.00,North,10,6.0,13.0,87,-99.99,,,-99.99,,2013-02-08 13:52:00,
2013-02-08 09:02:00,18.0,15.0,-100.00,North,350,7.0,10.0,87,-99.99,,,-99.99,,2013-02-08 14:02:00,
2013-02-08 09:11:00,18.0,15.0,-100.00,NNW,345,3.0,13.0,86,-99.99,,,-99.99,,2013-02-08 14:11:00,
2013-02-08 09:22:00,18.0,15.0,-100.00,NNW,345,6.0,12.0,87,-99.99,,,-99.99,,2013-02-08 14:22:00,
2013-02-08 09:32:00,18.0,15.0,-100.00,North,355,7.0,13.0,86,-99.99,,,-99.99,,2013-02-08 14:32:00,
2013-02-08 09:42:00,18.0,14.0,-100.00,North,5,6.0,13.0,86,-99.99,,,-99.99,,2013-02-08 14:42:00,
2013-02-08 09:52:00,18.0,15.0,-100.00,North,5,7.0,13.0,86,-99.99,,,-99.99,,2013-02-08 14:52:00,
2013-02-08 10:00:00,19.0,16.0,-100.00,NNE,20,6.0,12.0,86,-99.99,,,-99.99,,2013-02-08 15:00:00,
2013-02-08 10:02:00,18.0,15.0,-100.00,North,5,8.0,13.0,86,-99.99,,,-99.99,,2013-02-08 15:02:00,
2013-02-08 10:12:00,18.0,15.0,-100.00,NE,45,6.0,13.0,86,-99.99,,,-99.99,,2013-02-08 15:12:00,
2013-02-08 10:22:00,18.0,15.0,-100.00,NNE,25,6.0,12.0,86,-99.99,,,-99.99,,2013-02-08 15:22:00,
2013-02-08 10:32:00,18.0,15.0,-100.00,NNE,30,5.0,12.0,85,-99.99,,,-99.99,,2013-02-08 15:32:00,
2013-02-08 10:42:00,19.0,16.0,-100.00,NNE,20,6.0,12.0,86,-99.99,,,-99.99,,2013-02-08 15:42:00,
2013-02-08 10:52:00,19.0,16.0,-100.00,NNE,20,6.0,12.0,86,-99.99,,,-99.99,,2013-02-08 15:52:00,
2013-02-08 13:03:00,19.0,17.0,-100.00,NE,35,5.0,13.0,91,-99.99,,,-99.99,,2013-02-08 18:03:00,
2013-02-08 13:12:00,19.0,17.0,-100.00,NNE,25,6.0,13.0,91,-99.99,,,-99.99,,2013-02-08 18:12:00,
2013-02-08 13:25:00,19.0,17.0,-100.00,NNE,30,7.0,16.0,92,-99.99,,,-99.99,,2013-02-08 18:25:00,
2013-02-08 13:36:00,18.0,16.0,-100.00,North,5,5.0,14.0,92,-99.99,,,-99.99,,2013-02-08 18:36:00,
2013-02-08 13:44:00,18.0,16.0,-100.00,NE,45,8.0,20.0,92,-99.99,,,-99.99,,2013-02-08 18:44:00,
2013-02-08 13:52:00,18.0,16.0,-100.00,NNE,15,3.0,14.0,92,-99.99,,,-99.99,,2013-02-08 18:52:00,
2013-02-08 14:02:00,18.0,16.0,-100.00,North,10,6.0,10.0,91,-99.99,,,-99.99,,2013-02-08 19:02:00,
2013-02-08 14:12:00,19.0,17.0,-100.00,NNW,345,7.0,13.0,91,-99.99,,,-99.99,,2013-02-08 19:12:00,
2013-02-08 14:22:00,20.0,18.0,-100.00,NE,50,3.0,12.0,92,-99.99,,,-99.99,,2013-02-08 19:22:00,
2013-02-08 14:32:00,20.0,18.0,-100.00,NNE,15,3.0,10.0,90,-99.99,,,-99.99,,2013-02-08 19:32:00,
2013-02-08 15:32:00,29.0,28.0,-100.00,NE,50,15.0,30.0,97,-99.99,,,-99.99,,2013-02-08 20:32:00,
2013-02-08 16:02:00,29.0,28.0,-100.00,ENE,65,16.0,33.0,98,-99.99,,,-99.99,,2013-02-08 21:02:00,
2013-02-08 16:12:00,28.0,28.0,-100.00,ENE,65,16.0,31.0,98,-99.99,,,-99.99,,2013-02-08 21:12:00,
2013-02-08 16:22:00,28.0,28.0,-100.00,NE,55,20.0,32.0,97,-99.99,,,-99.99,,2013-02-08 21:22:00,
2013-02-08 16:30:00,29.0,28.0,-100.00,NE,50,20.0,37.0,96,-99.99,,,-99.99,,2013-02-08 21:30:00,
2013-02-08 16:33:00,28.0,27.0,-100.00,ENE,60,14.0,36.0,97,-99.99,,,-99.99,,2013-02-08 21:33:00,
2013-02-08 16:42:00,28.0,27.0,-100.00,ENE,75,20.0,32.0,97,-99.99,,,-99.99,,2013-02-08 21:42:00,
2013-02-08 16:52:00,28.0,27.0,-100.00,NE,45,18.0,30.0,97,-99.99,,,-99.99,,2013-02-08 21:52:00,
2013-02-08 17:02:00,28.0,27.0,-100.00,NE,45,18.0,30.0,97,-99.99,,,-99.99,,2013-02-08 22:02:00,
2013-02-08 17:12:00,29.0,28.0,-100.00,NE,50,20.0,37.0,96,-99.99,,,-99.99,,2013-02-08 22:12:00,
2013-02-08 17:22:00,29.0,28.0,-100.00,NE,50,20.0,37.0,96,-99.99,,,-99.99,,2013-02-08 22:22:00,
2013-02-08 17:42:00,29.0,28.0,-100.00,NE,45,18.0,33.0,97,-99.99,,,-99.99,,2013-02-08 22:42:00,
2013-02-08 17:52:00,29.0,28.0,-100.00,NE,45,18.0,33.0,97,-99.99,,,-99.99,,2013-02-08 22:52:00,
2013-02-08 18:02:00,29.0,28.0,-100.00,NE,50,20.0,32.0,99,-99.99,,,-99.99,,2013-02-08 23:02:00,
2013-02-08 18:12:00,29.0,28.0,-100.00,NE,55,23.0,37.0,99,-99.99,,,-99.99,,2013-02-08 23:12:00,
2013-02-08 18:22:00,29.0,29.0,-100.00,NE,55,21.0,35.0,99,-99.99,,,-99.99,,2013-02-08 23:22:00,
2013-02-08 18:32:00,29.0,29.0,-100.00,NE,50,21.0,37.0,98,-99.99,,,-99.99,,2013-02-08 23:32:00,
2013-02-08 18:42:00,29.0,29.0,-100.00,NE,50,18.0,44.0,99,-99.99,,,-99.99,,2013-02-08 23:42:00,
2013-02-08 18:52:00,29.0,29.0,-100.00,NE,55,22.0,37.0,99,-99.99,,,-99.99,,2013-02-08 23:52:00,
2013-02-08 19:02:00,29.0,29.0,-100.00,NE,55,28.0,44.0,99,-99.99,,,-99.99,,2013-02-09 00:02:00,
2013-02-08 19:12:00,29.0,28.0,-100.00,NE,50,9.0,22.0,98,-99.99,,,-99.99,,2013-02-09 00:12:00,
2013-02-08 19:22:00,29.0,28.0,-100.00,NNE,30,7.0,20.0,97,-99.99,,,-99.99,,2013-02-09 00:22:00,
2013-02-08 19:42:00,21.0,20.0,-100.00,NNE,30,7.0,17.0,96,-99.99,,,-99.99,,2013-02-09 00:42:00,
2013-02-08 19:52:00,21.0,20.0,-100.00,North,0,6.0,17.0,96,-99.99,,,-99.99,,2013-02-09 00:52:00,
2013-02-08 20:02:00,20.0,20.0,-100.00,NE,35,10.0,23.0,96,-99.99,,,-99.99,,2013-02-09 01:02:00,
2013-02-08 20:12:00,20.0,20.0,-100.00,NNE,30,9.0,23.0,96,-99.99,,,-99.99,,2013-02-09 01:12:00,
2013-02-08 20:22:00,20.0,19.0,-100.00,North,5,10.0,24.0,95,-99.99,,,-99.99,,2013-02-09 01:22:00,
2013-02-08 20:32:00,20.0,19.0,-100.00,NNE,25,10.0,23.0,95,-99.99,,,-99.99,,2013-02-09 01:32:00,
2013-02-08 20:52:00,20.0,18.0,-100.00,NNE,30,9.0,22.0,94,-99.99,,,-99.99,,2013-02-09 01:52:00,
2013-02-08 21:02:00,19.0,17.0,-100.00,North,10,13.0,25.0,94,-99.99,,,-99.99,,2013-02-09 02:02:00,
2013-02-08 21:52:00,17.0,16.0,-100.00,NE,35,14.0,25.0,93,-99.99,,,-99.99,,2013-02-09 02:52:00,
2013-02-08 22:02:00,17.0,15.0,-100.00,North,5,10.0,28.0,93,-99.99,,,-99.99,,2013-02-09 03:02:00,
2013-02-08 22:10:00,16.0,14.0,-100.00,NE,35,9.0,27.0,93,-99.99,,,-99.99,,2013-02-09 03:10:00,
2013-02-08 22:11:00,17.0,15.0,-100.00,NNE,15,15.0,29.0,93,-99.99,,,-99.99,,2013-02-09 03:11:00,
2013-02-08 22:22:00,17.0,15.0,-100.00,NNE,25,13.0,24.0,93,-99.99,,,-99.99,,2013-02-09 03:22:00,
2013-02-08 22:32:00,16.0,14.0,-100.00,North,0,10.0,24.0,93,-99.99,,,-99.99,,2013-02-09 03:32:00,
2013-02-08 22:42:00,16.0,14.0,-100.00,North,355,12.0,24.0,93,-99.99,,,-99.99,,2013-02-09 03:42:00,
2013-02-08 22:52:00,16.0,14.0,-100.00,NE,35,9.0,27.0,93,-99.99,,,-99.99,,2013-02-09 03:52:00,
2013-02-08 23:03:00,16.0,14.0,-100.00,NE,35,9.0,27.0,93,-99.99,,,-99.99,,2013-02-09 04:03:00,
2013-02-08 23:42:00,16.0,14.0,-100.00,NNE,25,16.0,37.0,93,-99.99,,,-99.99,,2013-02-09 04:42:00,
2013-02-08 23:53:00,16.0,14.0,-100.00,NNE,25,16.0,37.0,93,-99.99,,,-99.99,,2013-02-09 04:53:00,